sat.trackr.live / text

‹ back to catalog

ONEWEB-0646

NORAD 55810 · 2023-029Q

PAYLOAD ACTIVE UNKNOWN

§ Identity

Operator
Country
UK
Launch date
2023-03-09
Launch site
AFETR
Launch vehicle
Mass (kg)
RCS (m²)

Purposes: comms

External: N2YO · Heavens-Above · Gunter

§ Orbital elements

Epoch: 2026-09-19T08:57:30.337920Z

Period
109.11 min
Inclination
87.9102°
Eccentricity
0.0001731
Mean motion
13.19726994 rev/d
Perigee alt
1,184.5 km
Apogee alt
1,187.1 km
Semi-major
7,563.9 km
B*
-3.0132e-7
RAAN
286.2077°
Arg perigee
85.7804°
Mean anomaly
274.3526°
Rev number
17,131

§ Raw data

ONEWEB-06461 55810U 23029Q   26262.37326780  .00000013  00000+0 -30132-6 0  99982 55810  87.9102 286.2077 0001731  85.7804 274.3526 13.19726994171317

JSON: /api/v1/satellites/55810 · /tle

For live sub-satellite position, see the globe view (requires WebGL).

§ Visibility from observer

Set your observer location to see the next 7 days of passes ≥ 10°. The values pass through the URL so the page stays shareable.

No JS? Fill the form by hand. The geolocation button needs JavaScript.